Terminal Aerodrome Forecast
Issued by NWS Medford, OR

Home | Current Version | Previous Version | Text Only | Print | Product List | Glossary On
Versions: 1 2 3 4 5 6 7 8 9 10 11 12 13
000
FTUS46 KMFR 301752
TAFMFR
TAF
KMFR 301752Z 3018/0118 32006KT P6SM FEW030
     FM010000 34009KT P6SM SKC
     FM010600 VRB02KT P6SM SKC=

USA.gov is the U.S. government's official web portal to all federal, state and local government web resources and services.